Taylorville, IL

6:42 AM CST on December 08, 2016 (GMT -0600)
Taylorville Municipal

Weather History for KTAZ - April, 2014

Change the Weather History Date:

Friday, April 25, 2014

  Actual Average (KSPI) Record (KSPI)
Temperature  
Mean Temperature 60 °F 57 °F  
Max Temperature 71 °F 68 °F 90 °F (1986)
Min Temperature 48 °F 46 °F 32 °F (1968)
Degree Days  
Heating Degree Days 6 9  
Month to date heating degree days 325  
Since 1 July heating degree days 5307  
Cooling Degree Days 0 1  
Month to date cooling degree days 14  
Year to date cooling degree days 16  
Growing Degree Days 10 (Base 50)    
Moisture  
Dew Point 46 °F    
Average Humidity 66    
Maximum Humidity 100    
Minimum Humidity 33    
Precipitation  
Precipitation 0.03 in 0.13 in 1.59 in (1904)
Month to date precipitation 2.86  
Year to date precipitation 9.12  
Snow  
Snow 0.00 in 0.00 in T in (1910)
Month to date snowfall 0.3  
Since 1 July snowfall 20.9  
Snow Depth -    
Sea Level Pressure  
Sea Level Pressure 29.83 in    
Wind  
Wind Speed 10 mph (West)    
Max Wind Speed 18 mph    
Max Gust Speed 29 mph    
Visibility 9 miles    
Events Rain    
T = Trace of Precipitation, MM = Missing Value Source: NWS Daily Summary

Daily Weather History Graph

Daily Weather History Graph

Search for Another Location

Airport or City:

Trip Planner

Search our weather history database for the weather conditions in past years. The results will help you decide how hot, cold, wet, or windy it might be!

Date:

Astronomy

Apr. 25, 2014 Rise Set
Actual Time 6:05 AM CDT 7:45 PM CDT
Civil Twilight 5:37 AM CDT 8:13 PM CDT
Nautical Twilight 5:02 AM CDT 8:48 PM CDT
Astronomical Twilight 4:26 AM CDT 9:25 PM CDT
Moon 3:53 AM CDT (4/25) 4:08 PM CDT (4/25)
Length of Visible Light 14h 36m
Length of Day
13h 39m
Waning Crescent, 15% of the Moon is Illuminated
Apr 25
Waning Crescent
Apr 29
New
May 6
First Quarter
May 14
Full
May 21
Last Quarter

Hourly Weather History & Observations

Time (CDT) Temp. Dew Point Humidity Pressure Visibility Wind Dir Wind Speed Gust Speed Precip Events Conditions
12:15 AM 53.6 °F 53.6 °F 100% 29.64 in 10.0 mi South 6.9 mph - N/A   Overcast
12:35 AM 55.4 °F 53.6 °F 94% 29.64 in 10.0 mi South 5.8 mph - N/A   Overcast
12:55 AM 55.4 °F 53.6 °F 94% 29.63 in 10.0 mi SSW 6.9 mph - N/A   Overcast
1:15 AM 55.4 °F 53.6 °F 94% 29.63 in 3.0 mi SW 5.8 mph - N/A   Heavy Drizzle
1:35 AM 55.4 °F 53.6 °F 94% 29.63 in 3.0 mi SW 5.8 mph - 0.02 in   Drizzle
1:55 AM 55.4 °F 53.6 °F 94% 29.62 in 7.0 mi West 4.6 mph - 0.02 in   Overcast
2:15 AM 55.4 °F 53.6 °F 94% 29.62 in 4.0 mi WNW 8.1 mph - N/A   Overcast
2:35 AM 55.4 °F 53.6 °F 94% 29.63 in 5.0 mi NW 16.1 mph 21.9 mph N/A Rain Rain
2:55 AM 53.6 °F 51.8 °F 94% 29.64 in 4.0 mi NW 16.1 mph - 0.01 in Rain Light Rain
3:15 AM 53.6 °F 51.8 °F 94% 29.65 in 5.0 mi NW 13.8 mph 21.9 mph N/A   Light Drizzle
3:35 AM 53.6 °F 51.8 °F 94% 29.67 in 7.0 mi NW 13.8 mph 21.9 mph N/A   Overcast
3:55 AM 53.6 °F 51.8 °F 94% 29.68 in 4.0 mi WNW 12.7 mph 17.3 mph N/A Rain Light Rain
4:15 AM 53.6 °F 51.8 °F 94% 29.70 in 5.0 mi WNW 18.4 mph 24.2 mph N/A   Overcast
4:35 AM 51.8 °F 50.0 °F 94% 29.71 in 5.0 mi NW 15.0 mph 24.2 mph N/A   Overcast
4:55 AM 51.8 °F 50.0 °F 94% 29.72 in 7.0 mi NW 17.3 mph 26.5 mph N/A   Overcast
5:15 AM 51.8 °F 48.2 °F 88% 29.74 in 10.0 mi NW 15.0 mph 28.8 mph N/A   Overcast
5:35 AM 50.0 °F 46.4 °F 87% 29.76 in 10.0 mi WNW 16.1 mph - N/A   Mostly Cloudy
5:55 AM 50.0 °F 46.4 °F 87% 29.77 in 10.0 mi NW 11.5 mph 24.2 mph N/A   Scattered Clouds
6:15 AM 50.0 °F 44.6 °F 82% 29.78 in 7.0 mi WNW 13.8 mph 20.7 mph N/A   Clear
6:35 AM 48.2 °F 44.6 °F 87% 29.80 in 5.0 mi WNW 12.7 mph 17.3 mph N/A   Clear
6:55 AM 48.2 °F 44.6 °F 87% 29.81 in 7.0 mi WNW 10.4 mph - N/A   Clear
7:15 AM 48.2 °F 44.6 °F 87% 29.82 in 10.0 mi NW 13.8 mph 17.3 mph N/A   Clear
7:35 AM 48.2 °F 42.8 °F 82% 29.83 in 10.0 mi NW 12.7 mph - N/A   Clear
7:55 AM 50.0 °F 42.8 °F 76% 29.84 in 10.0 mi NW 12.7 mph - N/A   Clear
8:15 AM 51.8 °F 42.8 °F 71% 29.85 in 10.0 mi NW 11.5 mph - N/A   Clear
8:35 AM 51.8 °F 42.8 °F 71% 29.86 in 10.0 mi NW 13.8 mph 21.9 mph N/A   Clear
8:55 AM 51.8 °F 44.6 °F 76% 29.87 in 10.0 mi NW 13.8 mph 19.6 mph N/A   Clear
9:15 AM 53.6 °F 44.6 °F 72% 29.88 in 10.0 mi NW 11.5 mph 19.6 mph N/A   Clear
9:35 AM 53.6 °F 44.6 °F 72% 29.88 in 10.0 mi NW 12.7 mph - N/A   Clear
9:55 AM 55.4 °F 42.8 °F 63% 29.90 in 10.0 mi NW 12.7 mph - N/A   Clear
10:15 AM 55.4 °F 44.6 °F 67% 29.91 in 10.0 mi WNW 9.2 mph - N/A   Clear
10:35 AM 57.2 °F 44.6 °F 63% 29.92 in 10.0 mi NW 10.4 mph 16.1 mph N/A   Clear
10:55 AM 59.0 °F 46.4 °F 63% 29.92 in 10.0 mi West 11.5 mph - N/A   Clear
11:15 AM 60.8 °F 46.4 °F 59% 29.93 in 10.0 mi WNW 12.7 mph 17.3 mph N/A   Clear
11:35 AM 60.8 °F 46.4 °F 59% 29.93 in 10.0 mi WNW 11.5 mph - N/A   Clear
11:55 AM 62.6 °F 44.6 °F 52% 29.93 in 10.0 mi WNW 10.4 mph - N/A   Clear
12:15 PM 64.4 °F 44.6 °F 49% 29.93 in 10.0 mi WNW 13.8 mph 18.4 mph N/A   Clear
12:35 PM 64.4 °F 46.4 °F 52% 29.92 in 10.0 mi West 12.7 mph 17.3 mph N/A   Clear
12:55 PM 64.4 °F 44.6 °F 49% 29.92 in 10.0 mi West 8.1 mph - N/A   Clear
1:15 PM 66.2 °F 44.6 °F 46% 29.92 in 10.0 mi WSW 10.4 mph 17.3 mph N/A   Clear
1:35 PM 68.0 °F 42.8 °F 40% 29.92 in 10.0 mi West 11.5 mph 17.3 mph N/A   Clear
1:55 PM 68.0 °F 46.4 °F 46% 29.92 in 10.0 mi West 11.5 mph - N/A   Clear
2:15 PM 68.0 °F 44.6 °F 43% 29.91 in 10.0 mi SW 6.9 mph 18.4 mph N/A   Clear
2:35 PM 68.0 °F 46.4 °F 46% 29.92 in 10.0 mi West 13.8 mph - N/A   Clear
2:55 PM 68.0 °F 44.6 °F 43% 29.91 in 10.0 mi WSW 12.7 mph - N/A   Clear
3:15 PM 69.8 °F 46.4 °F 43% 29.90 in 10.0 mi WSW 9.2 mph - N/A   Clear
3:35 PM 69.8 °F 44.6 °F 40% 29.89 in 10.0 mi West 9.2 mph - N/A   Clear
3:55 PM 69.8 °F 42.8 °F 38% 29.89 in 10.0 mi West 10.4 mph 19.6 mph N/A   Clear
4:15 PM 69.8 °F 44.6 °F 40% 29.89 in 10.0 mi SW 12.7 mph 18.4 mph N/A   Clear
4:35 PM 69.8 °F 44.6 °F 40% 29.89 in 10.0 mi WSW 13.8 mph 18.4 mph N/A   Clear
4:55 PM 71.6 °F 42.8 °F 35% 29.88 in 10.0 mi West 12.7 mph - N/A   Clear
5:15 PM 71.6 °F 41.0 °F 33% 29.88 in 10.0 mi West 12.7 mph 19.6 mph N/A   Clear
5:35 PM 69.8 °F 42.8 °F 38% 29.88 in 10.0 mi SW 10.4 mph - N/A   Clear
5:55 PM 71.6 °F 41.0 °F 33% 29.88 in 10.0 mi WSW 13.8 mph - N/A   Scattered Clouds
6:15 PM 69.8 °F 41.0 °F 35% 29.88 in 10.0 mi WSW 11.5 mph - N/A   Clear
6:35 PM 69.8 °F 41.0 °F 35% 29.87 in 10.0 mi WSW 11.5 mph 17.3 mph N/A   Clear
6:55 PM 68.0 °F 42.8 °F 40% 29.87 in 10.0 mi SW 9.2 mph - N/A   Clear
7:15 PM 68.0 °F 44.6 °F 43% 29.86 in 10.0 mi SW 8.1 mph - N/A   Clear
7:35 PM 62.6 °F 44.6 °F 52% 29.86 in 10.0 mi South 6.9 mph - N/A   Clear
7:55 PM 60.8 °F 46.4 °F 59% 29.87 in 10.0 mi SSW 8.1 mph - N/A   Clear
8:15 PM 59.0 °F 46.4 °F 63% 29.87 in 10.0 mi SSW 8.1 mph - N/A   Clear
8:35 PM 59.0 °F 46.4 °F 63% 29.87 in 10.0 mi South 8.1 mph - N/A   Clear
8:55 PM 59.0 °F 46.4 °F 63% 29.88 in 10.0 mi South 9.2 mph - N/A   Clear
9:15 PM 59.0 °F 46.4 °F 63% 29.88 in 10.0 mi South 6.9 mph - N/A   Clear
9:35 PM 57.2 °F 44.6 °F 63% 29.88 in 10.0 mi South 6.9 mph - N/A   Clear
9:55 PM 55.4 °F 44.6 °F 67% 29.88 in 10.0 mi South 8.1 mph - N/A   Clear
10:15 PM 57.2 °F 44.6 °F 63% 29.88 in 10.0 mi South 6.9 mph - N/A   Clear
10:35 PM 55.4 °F 44.6 °F 67% 29.89 in 10.0 mi South 6.9 mph - N/A   Clear
10:55 PM 55.4 °F 44.6 °F 67% 29.89 in 10.0 mi South 8.1 mph - N/A   Clear
11:15 PM 55.4 °F 44.6 °F 67% 29.89 in 10.0 mi South 6.9 mph - N/A   Clear
11:35 PM 53.6 °F 44.6 °F 72% 29.89 in 10.0 mi South 6.9 mph - N/A   Clear
11:55 PM 53.6 °F 44.6 °F 72% 29.89 in 10.0 mi South 8.1 mph - N/A   Clear